[[{"header":{"parameterUnit":"m.s-1","parameterCategory":1,"la1":30.2991,"la2":30.254,"lo1":-89.0895,"lo2":-89.0444,"dy":0.0017,"dx":0.0017,"nx":28,"ny":28,"refTime":"2025-06-04T21:00:00:Z","depth":0,"parameterNumber":2,"parameterNumberName":"U-component_of_WINDS"},"data":[0,0,0,0,0,0,0,0,0,0,0,0,0,0,0,0,0,0,0,0,0,0,0,0,0,0,0,0,0,0,0,0,0,0,0,0,0,0,0,0,0,0,0,0,0,0,0,0,0,0,0,0,0,0,0,0,0,0,-0.8897,-0.8897,0,-0.8966,-0.8966,-0.8967,-0.9002,-0.9002,-0.9002,-0.9002,-0.9071,-0.9073,-0.9075,0,0,0,0,0,0,0,0,0,0,0,0,0,-0.8793,-0.8795,-0.8896,-0.8897,-0.8898,-0.8965,-0.8966,-0.8967,-0.9002,-0.9002,-0.9002,-0.9002,-0.9071,-0.9073,-0.9075,0,0,0,0,0,0,0,0,0,0,0,0,0,-0.8848,-0.8795,-0.8896,-0.8924,-0.8927,-0.8965,-0.8966,-0.8968,-0.9002,-0.9002,-0.9002,-0.9002,-0.907,-0.9073,-0.9075,-0.9092,0,0,-0.9084,-0.9085,0,0,0,0,0,0,0,0,-0.8845,-0.8851,-0.8919,-0.8922,-0.8925,-0.8975,-0.8956,-0.9009,-0.9002,-0.8973,-0.9002,-0.9002,-0.9039,-0.9044,-0.9057,-0.9095,-0.9098,-0.9084,-0.9086,-0.9087,-0.9088,0,0,0,0,0,0,0,-0.8841,-0.8849,-0.8924,-0.892,-0.8924,-0.8932,-0.894,-0.8966,-0.9005,-0.8976,-0.8978,-0.8986,-0.9041,-0.9055,-0.9059,-0.9099,-0.9084,-0.9086,-0.9088,-0.9089,-0.9154,-0.9154,0,0,0,0,0,0,-0.8833,-0.8845,-0.8922,-0.8926,-0.8884,-0.8934,-0.8942,-0.8959,-0.9005,-0.9012,-0.8986,-0.8988,-0.905,-0.9056,-0.9062,-0.9084,-0.9087,-0.9089,-0.9091,-0.9154,-0.9154,-0.9154,0,0,0,0,0,0,-0.883,-0.8839,-0.8919,-0.8886,-0.8897,-0.8936,-0.8954,-0.896,-0.8974,-0.9013,-0.902,-0.8993,-0.905,-0.9058,-0.9084,-0.9087,-0.9091,-0.9093,-0.9154,-0.9154,-0.9154,-0.9129,0,0,0,0,0,0,-0.8827,-0.8838,-0.8845,-0.8886,-0.8899,-0.894,-0.8954,-0.8962,-0.8979,-0.8981,-0.9021,-0.9028,-0.9051,-0.908,-0.9087,-0.9091,-0.9095,-0.9153,-0.9154,-0.9154,-0.913,-0.9128,-0.9127,0,0,0,0,0,-0.8823,-0.8835,-0.8845,-0.8854,-0.8908,-0.894,-0.8948,-0.8974,-0.8979,-0.8986,-0.9011,-0.9026,-0.9086,-0.9082,-0.909,-0.9095,-0.9153,-0.9154,-0.9154,-0.913,-0.9128,-0.9127,0,0,0,0,0,0,-0.8793,-0.8841,-0.8853,-0.8878,-0.8905,-0.8946,-0.8956,-0.8972,-0.8997,-0.8999,-0.903,-0.9039,-0.9062,-0.9081,-0.9077,-0.9114,-0.9121,-0.9123,-0.91,-0.9099,-0.9098,-0.9093,-0.9097,0,0,0,0,0,-0.8789,-0.8811,-0.8852,-0.887,-0.8883,-0.8917,-0.8932,-0.8951,-0.898,-0.8991,-0.9018,-0.9045,-0.907,-0.9085,-0.911,-0.9133,-0.9142,-0.914,-0.9139,-0.9137,-0.9138,-0.9152,-0.9152,-0.9154,-0.9154,-0.9154,0,0,-0.8781,-0.881,-0.8822,-0.8865,-0.8888,-0.891,-0.8927,-0.8949,-0.8966,-0.8994,-0.9021,-0.9042,-0.9074,-0.9098,-0.911,-0.9115,-0.914,-0.9137,-0.9136,-0.9138,-0.9152,-0.9152,-0.9151,-0.9154,-0.9154,-0.9154,0,0,-0.8778,-0.8803,-0.8821,-0.8844,-0.8878,-0.8901,-0.8905,-0.8944,-0.8959,-0.8987,-0.9008,-0.9028,-0.907,-0.9093,-0.9109,-0.9115,-0.913,-0.9122,-0.9115,-0.9128,-0.9128,-0.9128,-0.913,-0.913,-0.9124,-0.9123,-0.9123,0,-0.8764,-0.8799,-0.8828,-0.885,-0.8868,-0.8895,-0.8913,-0.8934,-0.8975,-0.8986,-0.8991,-0.9045,-0.9068,-0.9098,-0.91,-0.9112,-0.9118,-0.9118,-0.9126,-0.9126,-0.9126,-0.9129,-0.9129,-0.9122,-0.9122,-0.9123,-0.9123,0,-0.878,-0.8804,-0.8814,-0.8854,-0.8873,-0.8893,-0.8924,-0.894,-0.8957,-0.8979,-0.9006,-0.9036,-0.9067,-0.9075,-0.9092,-0.9108,-0.911,-0.9119,-0.9127,-0.9124,-0.9127,-0.9128,-0.9121,-0.9121,-0.9121,-0.9122,0,0,-0.876,-0.8815,-0.8819,-0.8837,-0.8877,-0.8896,-0.8917,-0.8948,-0.8961,-0.8989,-0.9007,-0.9042,-0.9052,-0.9071,-0.909,-0.9101,-0.9104,-0.9109,-0.9111,-0.9107,-0.9123,-0.9116,-0.9116,-0.9114,-0.9114,-0.9114,-0.9121,0,-0.8763,-0.8803,-0.8829,-0.8858,-0.888,-0.8906,-0.8925,-0.8951,-0.8972,-0.8994,-0.9017,-0.9042,-0.9052,-0.9064,-0.9076,-0.9101,-0.9107,-0.9101,-0.9131,-0.9132,-0.9122,-0.9118,-0.911,-0.9115,-0.9122,-0.9122,-0.9122,0,-0.8772,-0.8799,-0.883,-0.8869,-0.8879,-0.8895,-0.8926,-0.8946,-0.8977,-0.8992,-0.9013,-0.9032,-0.9055,-0.9061,-0.9093,-0.9088,-0.9102,-0.9116,-0.9117,-0.9121,-0.9127,-0.9122,-0.9117,-0.9117,-0.9124,-0.9124,-0.9124,0,-0.8754,-0.8798,-0.8823,-0.8838,-0.8883,-0.8894,-0.8913,-0.8944,-0.8961,-0.8988,-0.8999,-0.9028,-0.9044,-0.9065,-0.9092,-0.9094,-0.9122,-0.913,-0.9134,-0.9134,-0.9139,-0.9138,-0.9136,-0.9148,-0.9148,-0.9148,-0.9148,0,-0.8755,-0.8773,-0.8815,-0.883,-0.8852,-0.8882,-0.8902,-0.8923,-0.895,-0.897,-0.8994,-0.9011,-0.9046,-0.9067,-0.9088,-0.9112,-0.9119,-0.9131,-0.9136,-0.9129,-0.9127,-0.9139,-0.9139,-0.9148,-0.9148,-0.9148,-0.9148,0,-0.8738,-0.8768,-0.8796,-0.8837,-0.8847,-0.8861,-0.8896,-0.8911,-0.8934,-0.8958,-0.8965,-0.9,-0.9027,-0.9056,-0.9093,-0.9107,-0.9129,-0.9137,-0.9119,-0.9122,-0.9125,-0.9124,-0.913,-0.9132,-0.9142,-0.9142,-0.9142,0,-0.8737,-0.8751,-0.8794,-0.8809,-0.8828,-0.8851,-0.8869,-0.89,-0.8917,-0.8953,-0.8964,-0.8993,-0.9018,-0.906,-0.9088,-0.9116,-0.9125,-0.9125,-0.9129,-0.9121,-0.9125,-0.9124,-0.9125,-0.9123,-0.9123,-0.9123,-0.9123,0,-0.8731,-0.8745,-0.877,-0.88,-0.8821,-0.8846,-0.8872,-0.8882,-0.8918,-0.8936,-0.8964,-0.8983,-0.9021,-0.9049,-0.9081,-0.9101,-0.9117,-0.9121,-0.9124,-0.9116,-0.9105,-0.9111,-0.9115,-0.9121,-0.9121,-0.9121,-0.9121,-0.9121,-0.8722,-0.8736,-0.8769,-0.8796,-0.8818,-0.8842,-0.8859,-0.8884,-0.8908,-0.8941,-0.8957,-0.8985,-0.9016,-0.906,-0.9079,-0.9102,-0.9107,-0.911,-0.9111,-0.9112,-0.911,-0.9102,-0.9107,-0.9108,-0.9108,-0.9108,-0.9108,0,-0.8718,-0.874,-0.8764,-0.88,-0.8821,-0.8836,-0.8865,-0.8882,-0.8907,-0.8934,-0.8958,-0.899,-0.9018,-0.9049,-0.9078,-0.909,-0.9099,-0.9097,-0.9096,-0.9101,-0.9104,-0.9098,-0.909,-0.909,-0.909,-0.909,-0.909,-0.909,-0.8718,-0.8743,-0.8761,-0.8797,-0.8819,-0.8847,-0.8863,-0.8885,-0.8907,-0.8942,-0.8965,-0.8985,-0.9014,-0.9046,-0.9072,-0.908,-0.909,-0.9086,-0.9097,-0.9099,-0.91,-0.9102,-0.9097,-0.9088,-0.9088,-0.9092,-0.9092,-0.9092]},{"header":{"parameterUnit":"m.s-1","parameterCategory":1,"la1":30.2991,"la2":30.254,"lo1":-89.0895,"lo2":-89.0444,"dy":0.0017,"dx":0.0017,"nx":28,"ny":28,"refTime":"2025-06-04T21:00:00:Z","depth":0,"parameterNumber":3,"parameterNumberName":"V-component_of_WINDS"},"data":[0,0,0,0,0,0,0,0,0,0,0,0,0,0,0,0,0,0,0,0,0,0,0,0,0,0,0,0,0,0,0,0,0,0,0,0,0,0,0,0,0,0,0,0,0,0,0,0,0,0,0,0,0,0,0,0,0,0,1.8885,1.8885,0,1.8844,1.8844,1.8843,1.8784,1.8783,1.8782,1.8781,1.8739,1.8739,1.8739,0,0,0,0,0,0,0,0,0,0,0,0,0,1.8913,1.8912,1.8885,1.8885,1.8884,1.8844,1.8844,1.8843,1.8784,1.8783,1.8782,1.878,1.8739,1.8739,1.8739,0,0,0,0,0,0,0,0,0,0,0,0,0,1.8889,1.8912,1.8885,1.885,1.8846,1.8844,1.8844,1.8843,1.8784,1.8783,1.8781,1.878,1.8739,1.8739,1.8739,1.8768,0,0,1.8738,1.8738,0,0,0,0,0,0,0,0,1.8891,1.8888,1.8856,1.8852,1.8848,1.8818,1.8838,1.8818,1.8785,1.8808,1.8781,1.8779,1.8766,1.8764,1.8759,1.8766,1.8764,1.8738,1.8738,1.8738,1.8738,0,0,0,0,0,0,0,1.8892,1.889,1.8869,1.8855,1.8851,1.8836,1.8831,1.8834,1.8796,1.8806,1.8801,1.8797,1.8764,1.876,1.8758,1.8764,1.8738,1.8738,1.8738,1.8737,1.8792,1.8793,0,0,0,0,0,0,1.8899,1.8891,1.887,1.8868,1.8866,1.8837,1.8831,1.8829,1.8796,1.879,1.8799,1.8795,1.8761,1.8758,1.8756,1.8788,1.8738,1.8737,1.8737,1.879,1.8792,1.8794,0,0,0,0,0,0,1.89,1.8898,1.8872,1.8878,1.8874,1.8838,1.8836,1.8829,1.8825,1.8791,1.8784,1.8801,1.876,1.8757,1.8765,1.8785,1.8737,1.8737,1.8788,1.8791,1.8793,1.8851,0,0,0,0,0,0,1.8901,1.8898,1.8909,1.8879,1.8874,1.8882,1.8837,1.8829,1.8824,1.8819,1.8791,1.8785,1.8758,1.8766,1.8765,1.8784,1.8737,1.8786,1.8789,1.8792,1.8847,1.8855,1.8862,0,0,0,0,0,1.8902,1.8927,1.891,1.8908,1.8887,1.8883,1.888,1.8848,1.8826,1.8837,1.8815,1.8786,1.8784,1.8767,1.8766,1.8785,1.8785,1.8788,1.8792,1.8844,1.8854,1.8862,0,0,0,0,0,0,1.8961,1.8923,1.8903,1.8919,1.8905,1.8873,1.8885,1.886,1.8851,1.8847,1.8808,1.8802,1.8816,1.8801,1.8784,1.8812,1.878,1.8783,1.882,1.8829,1.8836,1.8839,1.8737,0,0,0,0,0,1.8976,1.8976,1.8943,1.8961,1.8954,1.8921,1.8919,1.8896,1.8879,1.8873,1.8851,1.8836,1.8832,1.883,1.8824,1.8846,1.8838,1.8858,1.8866,1.8872,1.8875,1.8884,1.8892,1.8805,1.8805,1.8805,0,0,1.9006,1.8986,1.8988,1.8972,1.8958,1.8959,1.8916,1.892,1.892,1.8873,1.8879,1.8864,1.8844,1.8859,1.8865,1.8848,1.8897,1.8876,1.8882,1.8881,1.8888,1.8897,1.8904,1.8808,1.8807,1.8807,0,0,1.9062,1.9047,1.906,1.9047,1.9026,1.9004,1.9007,1.8979,1.8967,1.8973,1.8938,1.8938,1.8931,1.8919,1.8912,1.8964,1.8936,1.8963,1.9001,1.901,1.9017,1.9023,1.904,1.9047,1.8966,1.8966,1.8967,0,1.9103,1.9103,1.907,1.9075,1.9068,1.9026,1.9038,1.9028,1.9006,1.9003,1.8984,1.8975,1.8959,1.897,1.8983,1.8979,1.8981,1.8965,1.9019,1.9025,1.9029,1.9046,1.9052,1.897,1.8969,1.8969,1.8969,0,1.9153,1.9154,1.9167,1.9147,1.9142,1.9151,1.9119,1.9118,1.9096,1.9076,1.9082,1.9062,1.9051,1.9052,1.9031,1.906,1.905,1.9026,1.8993,1.9042,1.9056,1.9062,1.8974,1.8973,1.8972,1.8971,0,0,1.9244,1.9206,1.9211,1.9201,1.9176,1.9176,1.9183,1.9172,1.9171,1.9159,1.9163,1.9159,1.9136,1.9128,1.9105,1.9114,1.9155,1.9088,1.9087,1.91,1.9184,1.9202,1.9209,1.9137,1.9138,1.9139,1.9186,0,1.9294,1.9303,1.9273,1.929,1.929,1.925,1.9256,1.9241,1.9223,1.922,1.92,1.9197,1.9168,1.9163,1.917,1.9148,1.9171,1.9145,1.914,1.914,1.9144,1.9217,1.9235,1.928,1.9191,1.9192,1.9193,0,1.9352,1.9342,1.9359,1.9333,1.9331,1.9337,1.9325,1.9323,1.9305,1.9291,1.9283,1.9256,1.926,1.923,1.9235,1.9218,1.9215,1.9204,1.9205,1.9202,1.9168,1.9215,1.9294,1.93,1.9202,1.9201,1.92,0,1.9415,1.9406,1.9415,1.9408,1.9377,1.9382,1.937,1.935,1.9346,1.9335,1.9332,1.9322,1.9317,1.931,1.9281,1.9261,1.9289,1.9257,1.9277,1.9278,1.9283,1.9283,1.9361,1.9284,1.9284,1.9284,1.9283,0,1.9473,1.9484,1.9442,1.9447,1.9459,1.9425,1.9438,1.9421,1.9405,1.9406,1.9372,1.9373,1.9336,1.9333,1.9311,1.9318,1.9316,1.9305,1.9298,1.9307,1.9308,1.9303,1.9298,1.9285,1.9285,1.9285,1.9284,0,1.9544,1.9516,1.9523,1.9494,1.9487,1.9496,1.9471,1.9475,1.9455,1.9456,1.9455,1.9423,1.9419,1.939,1.9378,1.9363,1.9378,1.9366,1.9384,1.938,1.9401,1.9399,1.9477,1.9485,1.9405,1.9405,1.9406,0,1.9582,1.959,1.9561,1.956,1.9549,1.9547,1.9542,1.9509,1.9505,1.9486,1.9492,1.9484,1.9476,1.9471,1.9447,1.9438,1.9425,1.9453,1.9423,1.9431,1.9423,1.9423,1.9423,1.9459,1.946,1.9461,1.9461,0,1.9651,1.9637,1.9632,1.9621,1.9617,1.9607,1.9595,1.9596,1.956,1.9557,1.9552,1.9546,1.9535,1.9527,1.9515,1.9501,1.9475,1.9471,1.9475,1.9483,1.9492,1.9486,1.94,1.9469,1.9468,1.9468,1.9467,1.9467,1.9706,1.9711,1.9692,1.9686,1.9674,1.9664,1.9665,1.9646,1.9641,1.9629,1.961,1.9608,1.959,1.9569,1.9559,1.9556,1.9541,1.9547,1.9548,1.955,1.9554,1.9494,1.9553,1.9553,1.9553,1.9553,1.9553,0,1.9772,1.9758,1.9754,1.9738,1.9734,1.9711,1.9697,1.9695,1.9693,1.9678,1.9671,1.9665,1.9658,1.9634,1.9624,1.9627,1.9615,1.9625,1.9624,1.9621,1.9568,1.9565,1.9635,1.9635,1.9635,1.9635,1.9635,1.9635,1.9806,1.9813,1.9797,1.9798,1.9783,1.978,1.9774,1.9765,1.9753,1.9747,1.9741,1.9726,1.9707,1.9696,1.9688,1.9681,1.9679,1.9693,1.9682,1.9633,1.9625,1.9617,1.9614,1.9693,1.9693,1.9735,1.9735,1.9736]}]]